[[{"header":{"parameterUnit":"m.s-1","parameterCategory":1,"la1":30.2991,"la2":30.254,"lo1":-89.0895,"lo2":-89.0444,"dy":0.0017,"dx":0.0017,"nx":28,"ny":28,"refTime":"2024-02-17T09:00:00:Z","depth":0,"parameterNumber":2,"parameterNumberName":"U-component_of_WINDS"},"data":[0,0,0,0,0,0,0,0,0,0,0,0,0,0,0,0,0,0,0,0,0,0,0,0,0,0,0,0,0,0,0,0,0,0,0,0,0,0,0,0,0,0,0,0,0,0,0,0,0,0,0,0,0,0,0,0,0,0,-1.5433,-1.5434,0,-1.5503,-1.5504,-1.5504,-1.5479,-1.5477,-1.5476,-1.5474,-1.5548,-1.5551,-1.5555,0,0,0,0,0,0,0,0,0,0,0,0,0,-1.5278,-1.5281,-1.5433,-1.5434,-1.5435,-1.5503,-1.5504,-1.5505,-1.5479,-1.5477,-1.5475,-1.5473,-1.5547,-1.5551,-1.5555,0,0,0,0,0,0,0,0,0,0,0,0,0,-1.5346,-1.5282,-1.5433,-1.543,-1.543,-1.5503,-1.5504,-1.5505,-1.5479,-1.5477,-1.5475,-1.5472,-1.5545,-1.5551,-1.5556,-1.5635,0,0,-1.5571,-1.5574,0,0,0,0,0,0,0,0,-1.5343,-1.5352,-1.5429,-1.543,-1.5431,-1.548,-1.5476,-1.5549,-1.548,-1.5461,-1.5474,-1.5471,-1.5527,-1.5534,-1.5552,-1.5639,-1.5642,-1.5572,-1.5575,-1.5577,-1.5579,0,0,0,0,0,0,0,-1.5338,-1.5349,-1.5461,-1.5431,-1.5431,-1.5426,-1.5433,-1.549,-1.5507,-1.5462,-1.5461,-1.5469,-1.5527,-1.5547,-1.5554,-1.5643,-1.5572,-1.5576,-1.558,-1.5582,-1.5799,-1.5802,0,0,0,0,0,0,-1.5333,-1.5345,-1.5458,-1.5463,-1.538,-1.543,-1.5438,-1.5466,-1.5506,-1.551,-1.5471,-1.5468,-1.554,-1.5548,-1.5556,-1.5653,-1.5577,-1.5582,-1.5585,-1.5796,-1.58,-1.5803,0,0,0,0,0,0,-1.5329,-1.5343,-1.5456,-1.5404,-1.5417,-1.5435,-1.5467,-1.5469,-1.5489,-1.5513,-1.5516,-1.5489,-1.5538,-1.5549,-1.5616,-1.5655,-1.5584,-1.5589,-1.5793,-1.5797,-1.5801,-1.5847,0,0,0,0,0,0,-1.5325,-1.5342,-1.5372,-1.5404,-1.542,-1.5514,-1.547,-1.5472,-1.5498,-1.5494,-1.553,-1.5533,-1.5537,-1.5608,-1.5621,-1.5661,-1.5593,-1.579,-1.5795,-1.58,-1.5842,-1.5852,-1.5861,0,0,0,0,0,-1.532,-1.5383,-1.5374,-1.5388,-1.5458,-1.5516,-1.5525,-1.5528,-1.5501,-1.5532,-1.5547,-1.5532,-1.5648,-1.5615,-1.563,-1.5672,-1.5787,-1.5794,-1.5799,-1.5838,-1.585,-1.586,0,0,0,0,0,0,-1.5356,-1.5387,-1.5378,-1.5453,-1.5482,-1.5512,-1.5551,-1.554,-1.5578,-1.5573,-1.5575,-1.5583,-1.5652,-1.5668,-1.5631,-1.5751,-1.5714,-1.5723,-1.5738,-1.575,-1.5759,-1.5755,-1.5598,0,0,0,0,0,-1.5372,-1.5416,-1.5441,-1.5505,-1.552,-1.5533,-1.5558,-1.5557,-1.5588,-1.56,-1.562,-1.5651,-1.5694,-1.5723,-1.5764,-1.5843,-1.5851,-1.5879,-1.5889,-1.5896,-1.5905,-1.5949,-1.5962,-1.5822,-1.5822,-1.5822,0,0,-1.5408,-1.543,-1.5458,-1.5513,-1.5535,-1.5581,-1.5543,-1.5593,-1.5628,-1.5608,-1.5672,-1.5688,-1.5722,-1.5796,-1.5829,-1.5812,-1.5944,-1.5904,-1.591,-1.5914,-1.5956,-1.5969,-1.5981,-1.5826,-1.5826,-1.5825,0,0,-1.5495,-1.5516,-1.5572,-1.5595,-1.5629,-1.5637,-1.565,-1.5681,-1.5691,-1.5755,-1.5741,-1.5782,-1.5856,-1.5881,-1.5904,-1.6,-1.5988,-1.6013,-1.6062,-1.6105,-1.6116,-1.6126,-1.6161,-1.6174,-1.6021,-1.6021,-1.6021,0,-1.5535,-1.5603,-1.5602,-1.5654,-1.5679,-1.5661,-1.5718,-1.5741,-1.5787,-1.5805,-1.5783,-1.5877,-1.5898,-1.5978,-1.6001,-1.602,-1.6036,-1.601,-1.6114,-1.6124,-1.6133,-1.6167,-1.618,-1.6024,-1.6024,-1.6023,-1.6023,0,-1.5651,-1.5698,-1.5739,-1.5783,-1.5813,-1.5867,-1.5874,-1.5904,-1.59,-1.591,-1.5976,-1.6002,-1.6048,-1.6066,-1.6063,-1.6146,-1.6134,-1.6113,-1.6077,-1.615,-1.6182,-1.6194,-1.6028,-1.6027,-1.6026,-1.6026,0,0,-1.5766,-1.5807,-1.5823,-1.5843,-1.5878,-1.5915,-1.5968,-1.6012,-1.6038,-1.607,-1.6115,-1.6178,-1.6159,-1.6185,-1.6184,-1.6222,-1.6297,-1.6197,-1.6198,-1.6216,-1.6391,-1.6407,-1.6422,-1.6289,-1.6291,-1.6293,-1.6388,0,-1.5857,-1.595,-1.595,-1.6036,-1.608,-1.6063,-1.6109,-1.6137,-1.6147,-1.6186,-1.6198,-1.6243,-1.6214,-1.623,-1.6266,-1.628,-1.6333,-1.6273,-1.6332,-1.6334,-1.6326,-1.6438,-1.6456,-1.6545,-1.6401,-1.6403,-1.6404,0,-1.5977,-1.6012,-1.6102,-1.6131,-1.615,-1.6191,-1.6232,-1.6269,-1.6299,-1.6304,-1.6332,-1.6326,-1.638,-1.634,-1.6415,-1.6375,-1.6398,-1.6409,-1.6413,-1.642,-1.6375,-1.645,-1.6573,-1.6587,-1.6424,-1.6422,-1.6421,0,-1.6054,-1.6123,-1.6186,-1.6203,-1.6238,-1.6268,-1.6284,-1.6312,-1.6338,-1.6374,-1.6391,-1.6432,-1.6456,-1.6488,-1.6493,-1.6463,-1.6569,-1.6529,-1.6576,-1.6576,-1.6601,-1.6599,-1.6731,-1.6613,-1.6613,-1.6612,-1.6612,0,-1.6157,-1.6214,-1.6221,-1.626,-1.6322,-1.6322,-1.6384,-1.6397,-1.6422,-1.6463,-1.6451,-1.649,-1.6493,-1.6534,-1.6538,-1.6601,-1.6611,-1.6617,-1.6618,-1.6619,-1.6619,-1.6636,-1.6631,-1.6616,-1.6615,-1.6614,-1.6614,0,-1.6254,-1.6261,-1.6329,-1.6356,-1.6364,-1.6409,-1.6433,-1.647,-1.6478,-1.6531,-1.6544,-1.6558,-1.6605,-1.6612,-1.6667,-1.667,-1.6745,-1.6739,-1.6735,-1.6735,-1.6782,-1.6778,-1.6931,-1.6952,-1.6818,-1.682,-1.6821,0,-1.6321,-1.6364,-1.6395,-1.6422,-1.6439,-1.6482,-1.6509,-1.651,-1.6538,-1.6575,-1.6608,-1.6654,-1.6691,-1.6767,-1.6782,-1.6824,-1.682,-1.687,-1.6826,-1.6827,-1.6823,-1.6821,-1.6826,-1.688,-1.6881,-1.6882,-1.6883,0,-1.6439,-1.644,-1.6479,-1.6519,-1.6551,-1.6583,-1.6613,-1.6635,-1.664,-1.6672,-1.672,-1.6748,-1.6804,-1.685,-1.6892,-1.6909,-1.6898,-1.6897,-1.691,-1.6913,-1.691,-1.6914,-1.676,-1.6894,-1.6893,-1.6892,-1.6891,-1.6891,-1.6524,-1.6562,-1.6589,-1.6633,-1.6655,-1.6683,-1.672,-1.6732,-1.6772,-1.6817,-1.6815,-1.6867,-1.6896,-1.6951,-1.697,-1.7012,-1.6996,-1.7015,-1.702,-1.7025,-1.703,-1.6901,-1.7019,-1.7019,-1.7019,-1.7018,-1.7018,0,-1.6643,-1.666,-1.67,-1.6741,-1.6776,-1.676,-1.6792,-1.6822,-1.6868,-1.6896,-1.6932,-1.6986,-1.703,-1.7049,-1.7092,-1.7122,-1.7118,-1.7133,-1.7132,-1.7136,-1.7042,-1.7027,-1.7136,-1.7136,-1.7136,-1.7136,-1.7136,-1.7136,-1.6709,-1.6772,-1.6776,-1.6849,-1.6865,-1.6917,-1.6936,-1.6962,-1.6984,-1.7045,-1.7082,-1.7093,-1.7117,-1.7161,-1.7201,-1.7205,-1.7223,-1.7241,-1.7243,-1.7155,-1.7143,-1.7132,-1.7118,-1.7244,-1.7244,-1.7334,-1.7335,-1.7336]},{"header":{"parameterUnit":"m.s-1","parameterCategory":1,"la1":30.2991,"la2":30.254,"lo1":-89.0895,"lo2":-89.0444,"dy":0.0017,"dx":0.0017,"nx":28,"ny":28,"refTime":"2024-02-17T09:00:00:Z","depth":0,"parameterNumber":3,"parameterNumberName":"V-component_of_WINDS"},"data":[0,0,0,0,0,0,0,0,0,0,0,0,0,0,0,0,0,0,0,0,0,0,0,0,0,0,0,0,0,0,0,0,0,0,0,0,0,0,0,0,0,0,0,0,0,0,0,0,0,0,0,0,0,0,0,0,0,0,-6.5042,-6.5043,0,-6.5115,-6.5115,-6.5116,-6.5061,-6.5059,-6.5056,-6.5054,-6.5123,-6.5127,-6.5131,0,0,0,0,0,0,0,0,0,0,0,0,0,-6.485,-6.4854,-6.5042,-6.5043,-6.5044,-6.5115,-6.5116,-6.5116,-6.5061,-6.5058,-6.5056,-6.5053,-6.5121,-6.5126,-6.5131,0,0,0,0,0,0,0,0,0,0,0,0,0,-6.4929,-6.4855,-6.5042,-6.5025,-6.5024,-6.5114,-6.5116,-6.5117,-6.5062,-6.5058,-6.5055,-6.5051,-6.512,-6.5126,-6.5132,-6.5241,0,0,-6.515,-6.5153,0,0,0,0,0,0,0,0,-6.4925,-6.4936,-6.5027,-6.5026,-6.5026,-6.5075,-6.5073,-6.5158,-6.5063,-6.5047,-6.5054,-6.505,-6.511,-6.5116,-6.5137,-6.5244,-6.5247,-6.5151,-6.5155,-6.5157,-6.5159,0,0,0,0,0,0,0,-6.4919,-6.4933,-6.507,-6.5028,-6.5027,-6.5012,-6.5019,-6.5089,-6.5097,-6.5048,-6.5045,-6.5054,-6.5108,-6.5132,-6.5139,-6.5248,-6.5151,-6.5156,-6.516,-6.5162,-6.5448,-6.5451,0,0,0,0,0,0,-6.4916,-6.4929,-6.5068,-6.5073,-6.4966,-6.5018,-6.5027,-6.5063,-6.5097,-6.5098,-6.5057,-6.5051,-6.5123,-6.5132,-6.5141,-6.5271,-6.5157,-6.5163,-6.5166,-6.5444,-6.5449,-6.5453,0,0,0,0,0,0,-6.4912,-6.4929,-6.5065,-6.5,-6.5016,-6.5026,-6.5067,-6.5066,-6.5089,-6.5103,-6.5104,-6.508,-6.5121,-6.5132,-6.5217,-6.5273,-6.5166,-6.5171,-6.5439,-6.5445,-6.5451,-6.5533,0,0,0,0,0,0,-6.4907,-6.4928,-6.4971,-6.5001,-6.502,-6.5142,-6.507,-6.507,-6.5101,-6.5094,-6.5125,-6.5126,-6.5119,-6.5208,-6.5223,-6.5279,-6.5176,-6.5434,-6.5442,-6.5449,-6.5525,-6.5541,-6.5554,0,0,0,0,0,-6.4901,-6.499,-6.4973,-6.4991,-6.5074,-6.5145,-6.5156,-6.5147,-6.5105,-6.5148,-6.5157,-6.5125,-6.5264,-6.5217,-6.5233,-6.5292,-6.5431,-6.544,-6.5448,-6.5518,-6.5537,-6.5554,0,0,0,0,0,0,-6.4964,-6.4993,-6.4976,-6.5078,-6.511,-6.5136,-6.5189,-6.5167,-6.521,-6.5201,-6.5187,-6.5194,-6.5283,-6.5296,-6.5243,-6.54,-6.5341,-6.5353,-6.5388,-6.5407,-6.5421,-6.5416,-6.5181,0,0,0,0,0,-6.499,-6.5048,-6.5069,-6.5157,-6.5175,-6.5179,-6.521,-6.5201,-6.5232,-6.5245,-6.526,-6.529,-6.5341,-6.5374,-6.5421,-6.5526,-6.5532,-6.5575,-6.5589,-6.5601,-6.5612,-6.5669,-6.5688,-6.5482,-6.5482,-6.5482,0,0,-6.5044,-6.5067,-6.5104,-6.5171,-6.5194,-6.5253,-6.5191,-6.5255,-6.5298,-6.5254,-6.5335,-6.5348,-6.538,-6.5476,-6.5518,-6.5489,-6.567,-6.5612,-6.5622,-6.5626,-6.568,-6.5699,-6.5717,-6.5488,-6.5487,-6.5486,0,0,-6.5172,-6.5196,-6.5272,-6.5298,-6.5335,-6.5338,-6.5356,-6.5386,-6.5393,-6.5475,-6.5444,-6.5493,-6.558,-6.5605,-6.5629,-6.5768,-6.5741,-6.5784,-6.586,-6.5915,-6.5931,-6.5946,-6.5995,-6.6013,-6.5795,-6.5795,-6.5795,0,-6.5234,-6.5323,-6.5314,-6.5381,-6.5411,-6.5376,-6.5453,-6.5477,-6.5527,-6.5548,-6.5514,-6.5624,-6.5643,-6.5745,-6.5779,-6.5799,-6.5819,-6.578,-6.593,-6.5944,-6.5957,-6.6005,-6.6023,-6.58,-6.5799,-6.5799,-6.5798,0,-6.5398,-6.546,-6.5516,-6.5568,-6.5604,-6.5676,-6.5676,-6.5713,-6.5701,-6.5706,-6.579,-6.5812,-6.5864,-6.5887,-6.5874,-6.5986,-6.5967,-6.5932,-6.5873,-6.5982,-6.6027,-6.6045,-6.5807,-6.5805,-6.5804,-6.5802,0,0,-6.5568,-6.5615,-6.5636,-6.5659,-6.5698,-6.5745,-6.5814,-6.5866,-6.5899,-6.5934,-6.5991,-6.6067,-6.6035,-6.6063,-6.6052,-6.6101,-6.621,-6.606,-6.6061,-6.6088,-6.6335,-6.6361,-6.6382,-6.6192,-6.6195,-6.6198,-6.6332,0,-6.5699,-6.5822,-6.5816,-6.5931,-6.5988,-6.5956,-6.6016,-6.6045,-6.6053,-6.61,-6.6107,-6.6161,-6.6115,-6.6132,-6.6178,-6.6187,-6.6259,-6.6177,-6.6244,-6.6247,-6.6238,-6.6405,-6.6433,-6.6559,-6.6349,-6.6352,-6.6354,0,-6.5868,-6.5912,-6.6034,-6.6065,-6.6088,-6.6143,-6.6191,-6.6237,-6.627,-6.6271,-6.6303,-6.6285,-6.6353,-6.6292,-6.6386,-6.633,-6.6357,-6.6365,-6.637,-6.6376,-6.6308,-6.6416,-6.6599,-6.6618,-6.6381,-6.6379,-6.6377,0,-6.5981,-6.607,-6.6155,-6.6175,-6.6214,-6.6253,-6.627,-6.6299,-6.6331,-6.6372,-6.6393,-6.644,-6.6466,-6.6503,-6.6497,-6.6453,-6.6593,-6.6531,-6.6596,-6.6596,-6.6627,-6.6625,-6.6817,-6.6644,-6.6643,-6.6643,-6.6643,0,-6.6128,-6.6204,-6.6206,-6.6258,-6.6342,-6.6333,-6.6415,-6.6428,-6.6454,-6.6507,-6.648,-6.653,-6.652,-6.6569,-6.6565,-6.6643,-6.6655,-6.6657,-6.6655,-6.666,-6.666,-6.6678,-6.6669,-6.6648,-6.6647,-6.6646,-6.6645,0,-6.6269,-6.6273,-6.6363,-6.6393,-6.6402,-6.6462,-6.6486,-6.6535,-6.654,-6.6607,-6.6622,-6.663,-6.6686,-6.6684,-6.6748,-6.6745,-6.6842,-6.6829,-6.6832,-6.6829,-6.6894,-6.6888,-6.7104,-6.7132,-6.6941,-6.6942,-6.6944,0,-6.6363,-6.6421,-6.6457,-6.6492,-6.6512,-6.6568,-6.6601,-6.6594,-6.6629,-6.6671,-6.6714,-6.6769,-6.6812,-6.6903,-6.6913,-6.6961,-6.695,-6.7022,-6.6957,-6.696,-6.6952,-6.6949,-6.6954,-6.7035,-6.7037,-6.7039,-6.7041,0,-6.6529,-6.6529,-6.6579,-6.663,-6.6671,-6.6711,-6.6747,-6.6776,-6.6773,-6.6813,-6.6872,-6.6906,-6.6971,-6.7025,-6.7072,-6.7087,-6.7064,-6.7061,-6.7079,-6.7084,-6.7084,-6.7085,-6.6867,-6.7056,-6.7055,-6.7053,-6.7053,-6.7052,-6.6649,-6.67,-6.6734,-6.679,-6.6817,-6.6852,-6.6899,-6.6911,-6.6961,-6.7015,-6.7007,-6.7073,-6.7103,-6.7163,-6.7183,-6.7233,-6.7207,-6.7233,-6.7239,-6.7246,-6.7253,-6.7076,-6.7241,-6.7241,-6.7241,-6.724,-6.724,0,-6.6815,-6.6836,-6.6888,-6.6941,-6.6985,-6.6961,-6.6999,-6.7037,-6.7096,-6.7127,-6.7171,-6.7238,-6.7291,-6.7305,-6.7355,-6.7393,-6.7383,-6.7406,-6.7403,-6.7407,-6.7273,-6.7253,-6.7413,-6.7413,-6.7413,-6.7413,-6.7413,-6.7413,-6.6907,-6.6991,-6.6995,-6.7091,-6.711,-6.7176,-6.72,-6.7232,-6.7257,-6.7334,-6.7378,-6.7388,-6.7412,-6.7464,-6.7511,-6.7513,-6.7533,-6.7561,-6.7559,-6.7434,-6.7417,-6.74,-6.7381,-6.7565,-6.7565,-6.7689,-6.769,-6.7691]}]]